This is the latest recevied weather packets stored in our database for station/object K4PAR-1. If no packets are shown the sender has not sent any weather packets the latest 10 day(s).
| Time | Temp. | Humidity | Pressure | Rain* | Wind** | Luminosity | Snow |
|---|---|---|---|---|---|---|---|
| 1788029809 | 31.11° C | - | - | 0 mm | 1.34 m/s, 257° | - | - |
| 1788029567 | 31.11° C | - | - | 0 mm | 0.89 m/s, 201° | - | - |
| 1788029324 | 31.11° C | - | - | 0 mm | 2.24 m/s, 218° | - | - |
| 1788029082 | 30.56° C | - | - | 0 mm | 2.24 m/s, 242° | - | - |
| 1788028839 | 32.78° C | - | - | 0 mm | 0 m/s | - | - |
| 1788028597 | 32.78° C | - | - | 0 mm | 0 m/s | - | - |
| 1788028354 | 32.78° C | - | - | 0 mm | 0 m/s | - | - |
| 1788028112 | 31.67° C | - | - | 0 mm | 0 m/s | - | - |
| 1788027869 | 30° C | - | - | 0 mm | 0 m/s | - | - |
| 1788027384 | 30° C | - | - | 0 mm | 2.24 m/s, 218° | - | - |
| 1788027142 | 30° C | - | - | 0 mm | 1.79 m/s, 276° | - | - |
| 1788026899 | 29.44° C | - | - | 0 mm | 2.24 m/s, 204° | - | - |
| 1788026657 | 31.11° C | - | - | 0 mm | 0 m/s | - | - |
| 1788026414 | 30.56° C | - | - | 0 mm | 2.24 m/s, 214° | - | - |
| 1788026172 | 33.33° C | - | - | 0 mm | 0.45 m/s, 290° | - | - |
| 1788025929 | 32.78° C | - | - | 0 mm | 0 m/s | - | - |
| 1788025687 | 30° C | - | - | 0 mm | 2.68 m/s, 225° | - | - |
| 1788025444 | 29.44° C | - | - | 0 mm | 2.68 m/s, 246° | - | - |
| 1788025264 | 31.11° C | - | - | 0 mm | 0 m/s | - | - |
| 1788025202 | 31.11° C | - | - | 0 mm | 0 m/s | - | - |
| 1788024959 | 31.67° C | - | - | 0 mm | 0 m/s | - | - |
| 1788024474 | 29.44° C | - | - | 0 mm | 1.34 m/s, 204° | - | - |
| 1788024232 | 29.44° C | - | - | 0 mm | 1.79 m/s, 249° | - | - |
| 1788023989 | 28.33° C | - | - | 0 mm | 2.68 m/s, 219° | - | - |
| 1788023747 | 28.89° C | - | - | 0 mm | 2.68 m/s, 207° | - | - |
* Rain latest hour (hover to see other rain measurements)
** Current wind speed in m/s (hover to see current wind gust speed)